W2MMD-13 Weather Reports


time (UTC)temp
C
wind
direction
speed
KPH
gust
KPH
rain 1hr
cm
rain 24hr
cm
rain mn
cm
humidity
%
barometer
mb
20260505192839 28 203 43.5 43.5 0.00 0.00 0.00 35
20260505191839 28 180 24.1 24.1 0.00 0.00 0.00 39
20260505190851 28 225 29.0 29.0 0.00 0.00 0.00 37
20260505190839 28 225 32.2 32.2 0.00 0.00 0.00 37
20260505185839 28 225 29.0 29.0 0.00 0.00 0.00 40
20260505184839 28 180 20.9 20.9 0.00 0.00 0.00 40
20260505183851 28 203 14.5 14.5 0.00 0.00 0.00 42
20260505183839 27 203 20.9 20.9 0.00 0.00 0.00 42
20260505182839 28 180 16.1 16.1 0.00 0.00 0.00 44
20260505181839 27 158 17.7 17.7 0.00 0.00 0.00 42
20260505180839 27 225 25.7 25.7 0.00 0.00 0.00 42
20260505175839 27 203 20.9 20.9 0.00 0.00 0.00 42
20260505174840 27 225 20.9 20.9 0.00 0.00 0.00 42
20260505173840 27 225 19.3 19.3 0.00 0.00 0.00 43
20260505172840 27 203 17.7 17.7 0.00 0.00 0.00 43
20260505172042 27 180 16.1 16.1 0.00 0.00 0.00 44
20260505171840 27 180 16.1 16.1 0.00 0.00 0.00 44
20260505170851 27 203 20.9 20.9 0.00 0.00 0.00 45
20260505170840 27 180 22.5 22.5 0.00 0.00 0.00 45
20260505165840 27 203 17.7 17.7 0.00 0.00 0.00 43
20260505164840 26 203 27.4 27.4 0.00 0.00 0.00 44
20260505163840 27 203 16.1 16.1 0.00 0.00 0.00 45
20260505162840 27 225 16.1 16.1 0.00 0.00 0.00 46
20260505161840 26 203 19.3 19.3 0.00 0.00 0.00 46
20260505160840 26 203 14.5 14.5 0.00 0.00 0.00 47
20260505153106 25 158 14.5 14.5 0.00 0.00 0.00 49
20260505152853 25 158 14.5 14.5 0.00 0.00 0.00 49
20260505152839 25 225 16.1 16.1 0.00 0.00 0.00 49
20260505151839 25 225 16.1 16.1 0.00 0.00 0.00 51
20260505150851 23 158 12.9 12.9 0.00 0.00 0.00 53
20260505150840 23 225 11.3 11.3 0.00 0.00 0.00 53
20260505150241 23 203 19.3 19.3 0.00 0.00 0.00 52
20260505124839 20 203 19.3 19.3 0.00 0.00 0.00 61
20260505123839 20 225 14.5 14.5 0.00 0.00 0.00 63
20260505122839 19 225 14.5 14.5 0.00 0.00 0.00 63
20260505121850 18 180 12.9 12.9 0.00 0.00 0.00 65
20260505121839 18 180 11.3 11.3 0.00 0.00 0.00 65
20260505120839 18 203 16.1 16.1 0.00 0.00 0.00 67
20260505115839 18 180 12.9 12.9 0.00 0.00 0.00 68
20260505114850 17 225 14.5 14.5 0.00 0.00 0.00 70
20260505114839 17 225 12.9 12.9 0.00 0.00 0.00 70
20260505113840 17 158 12.9 12.9 0.00 0.00 0.00 72
20260505112840 17 203 8.0 8.0 0.00 0.00 0.00 74
20260505111840 16 180 9.7 9.7 0.00 0.00 0.00 75
20260505110851 16 203 9.7 9.7 0.00 0.00 0.00 76
20260505110840 16 203 8.0 8.0 0.00 0.00 0.00 76
20260505101840 14 180 4.8 4.8 0.00 0.00 0.00 83
20260505100840 14 203 6.4 6.4 0.00 0.00 0.00 83
20260505095852 14 180 9.7 9.7 0.00 0.00 0.00 83
20260505095840 14 180 8.0 8.0 0.00 0.00 0.00 83
20260505094852 14 203 11.3 11.3 0.00 0.00 0.00 83
20260505094840 14 203 8.0 8.0 0.00 0.00 0.00 83
20260505094113 15 180 8.0 8.0 0.00 0.00 0.00 83
20260505094003 15 180 8.0 8.0 0.00 0.00 0.00 83
20260505093840 15 180 8.0 8.0 0.00 0.00 0.00 83
20260505092839 15 158 4.8 4.8 0.00 0.00 0.00 83
20260505091924 15 158 8.0 8.0 0.00 0.00 0.00 82
20260505091839 15 158 8.0 8.0 0.00 0.00 0.00 82
20260505090852 15 180 6.4 6.4 0.00 0.00 0.00 82
20260505090839 15 180 8.0 8.0 0.00 0.00 0.00 82
20260505085839 15 225 4.8 4.8 0.00 0.00 0.00 82
20260505084851 15 113 8.0 8.0 0.00 0.00 0.00 82
20260505084839 15 113 4.8 4.8 0.00 0.00 0.00 82
20260505083839 15 158 4.8 4.8 0.00 0.00 0.00 82
20260505082839 15 158 4.8 4.8 0.00 0.00 0.00 82
20260505081850 15 180 8.0 8.0 0.00 0.00 0.00 82
20260505081839 15 158 4.8 4.8 0.00 0.00 0.00 82
20260505080953 15 180 8.0 8.0 0.00 0.00 0.00 83
20260505080839 15 180 8.0 8.0 0.00 0.00 0.00 83
20260505075850 15 158 4.8 4.8 0.00 0.00 0.00 83
20260505075839 15 203 4.8 4.8 0.00 0.00 0.00 83
20260505074839 14 158 6.4 6.4 0.00 0.00 0.00 83
20260505073852 15 180 6.4 6.4 0.00 0.00 0.00 82
20260505073839 15 180 4.8 4.8 0.00 0.00 0.00 82
20260505072839 15 180 8.0 8.0 0.00 0.00 0.00 82
20260505071839 15 203 8.0 8.0 0.00 0.00 0.00 83
20260505070839 15 180 8.0 8.0 0.00 0.00 0.00 83
20260505065839 15 203 4.8 4.8 0.00 0.00 0.00 82
20260505065314 15 158 6.4 6.4 0.00 0.00 0.00 82
20260505064851 15 158 6.4 6.4 0.00 0.00 0.00 82
20260505064839 15 158 8.0 8.0 0.00 0.00 0.00 82
20260505063839 15 203 8.0 8.0 0.00 0.00 0.00 82
20260505062850 15 203 6.4 6.4 0.00 0.00 0.00 82
20260505062840 15 158 4.8 4.8 0.00 0.00 0.00 82
20260505061852 15 158 14.5 14.5 0.00 0.00 0.00 81
20260505061839 15 180 8.0 8.0 0.00 0.00 0.00 81
20260505060839 15 203 8.0 8.0 0.00 0.00 0.00 81
20260505055956 15 113 8.0 8.0 0.00 0.00 0.00 81
20260505055850 15 113 8.0 8.0 0.00 0.00 0.00 81
20260505055839 15 180 9.7 9.7 0.00 0.00 0.00 81
20260505054839 15 180 8.0 8.0 0.00 0.00 0.00 80
20260505053839 15 180 8.0 8.0 0.00 0.00 0.00 79
20260505052839 15 158 14.5 14.5 0.00 0.00 0.00 78
20260505051840 15 158 6.4 6.4 0.00 0.00 0.00 77
20260505050840 16 135 11.3 11.3 0.00 0.00 0.00 75
20260505040840 15 158 8.0 8.0 0.00 0.00 0.00 73
20260505035840 16 158 17.7 17.7 0.00 0.00 0.00 73
20260505034840 16 180 12.9 12.9 0.00 0.00 0.00 73
20260505033840 16 113 14.5 14.5 0.00 0.00 0.00 73
20260505032840 16 158 8.0 8.0 0.00 0.00 0.00 73
20260505031853 16 158 9.7 9.7 0.00 0.00 0.00 73
20260505031840 16 158 12.9 12.9 0.00 0.00 0.00 73
20260505030840 16 135 9.7 9.7 0.00 0.00 0.00 72
20260505025839 16 135 9.7 9.7 0.00 0.00 0.00 71
20260505024839 16 113 8.0 8.0 0.00 0.00 0.00 69
20260505023839 16 158 12.9 12.9 0.00 0.00 0.00 68
20260505022839 16 113 6.4 6.4 0.00 0.00 0.00 67
20260505021839 16 158 8.0 8.0 0.00 0.00 0.00 65
20260505020850 16 135 8.0 8.0 0.00 0.00 0.00 62
20260505020839 16 135 6.4 6.4 0.00 0.00 0.00 62
20260505015851 16 113 9.7 9.7 0.00 0.00 0.00 58
20260505015839 16 113 8.0 8.0 0.00 0.00 0.00 58
20260505014839 16 135 6.4 6.4 0.00 0.00 0.00 57
20260505013852 17 180 6.4 6.4 0.00 0.00 0.00 56
20260505013839 17 135 6.4 6.4 0.00 0.00 0.00 56
20260505012839 17 113 8.0 8.0 0.00 0.00 0.00 55
20260505011839 17 180 6.4 6.4 0.00 0.00 0.00 55
20260505010923 17 158 8.0 8.0 0.00 0.00 0.00 55
20260505010839 17 158 8.0 8.0 0.00 0.00 0.00 55
20260505005839 17 135 9.7 9.7 0.00 0.00 0.00 57
20260505004839 17 158 1.6 1.6 0.00 0.00 0.00 56
20260505003839 17 158 11.3 11.3 0.00 0.00 0.00 55
20260505002839 17 90 6.4 6.4 0.00 0.00 0.00 55
20260505001839 18 135 8.0 8.0 0.00 0.00 0.00 53
20260505000851 18 158 6.4 6.4 0.00 0.00 0.00 51
20260505000839 18 158 8.0 8.0 0.00 0.00 0.00 51
20260504235839 19 135 6.4 6.4 0.00 0.00 0.00 50
20260504234851 19 158 8.0 8.0 0.00 0.00 0.00 49
20260504234839 20 158 4.8 4.8 0.00 0.00 0.00 49
20260504233850 20 113 6.4 6.4 0.00 0.00 0.00 47
20260504233839 20 113 4.8 4.8 0.00 0.00 0.00 47
20260504232924 20 158 6.4 6.4 0.00 0.00 0.00 45
20260504232839 20 158 6.4 6.4 0.00 0.00 0.00 45
20260504231851 21 158 9.7 9.7 0.00 0.00 0.00 44
20260504231839 21 158 8.0 8.0 0.00 0.00 0.00 44
20260504230840 21 180 4.8 4.8 0.00 0.00 0.00 44
20260504225852 21 225 14.5 14.5 0.00 0.00 0.00 43
20260504225840 21 225 11.3 11.3 0.00 0.00 0.00 43
20260504224840 21 135 6.4 6.4 0.00 0.00 0.00 42
20260504223912 21 135 11.3 11.3 0.00 0.00 0.00 42
20260504223840 21 135 11.3 11.3 0.00 0.00 0.00 42
20260504222852 22 158 4.8 4.8 0.00 0.00 0.00 42
20260504222840 22 158 6.4 6.4 0.00 0.00 0.00 42
20260504221840 22 203 17.7 17.7 0.00 0.00 0.00 40
20260504220840 22 203 14.5 14.5 0.00 0.00 0.00 38
20260504215840 22 225 17.7 17.7 0.00 0.00 0.00 38
20260504214840 22 203 17.7 17.7 0.00 0.00 0.00 38
20260504213840 22 203 19.3 19.3 0.00 0.00 0.00 38
20260504212840 22 180 11.3 11.3 0.00 0.00 0.00 37
20260504211852 22 180 14.5 14.5 0.00 0.00 0.00 37
20260504211840 22 180 17.7 17.7 0.00 0.00 0.00 37
20260504210839 22 225 14.5 14.5 0.00 0.00 0.00 36
20260504205839 22 225 32.2 32.2 0.00 0.00 0.00 37
20260504204839 22 225 17.7 17.7 0.00 0.00 0.00 36
20260504203851 22 180 20.9 20.9 0.00 0.00 0.00 37
20260504203839 22 180 16.1 16.1 0.00 0.00 0.00 37
20260504202852 22 203 19.3 19.3 0.00 0.00 0.00 37
20260504202839 22 203 19.3 19.3 0.00 0.00 0.00 36
20260504201839 23 225 12.9 12.9 0.00 0.00 0.00 36
20260504200852 23 225 17.7 17.7 0.00 0.00 0.00 36
20260504200839 23 180 14.5 14.5 0.00 0.00 0.00 36
20260504195839 22 180 25.7 25.7 0.00 0.00 0.00 35
20260504194942 22 225 19.3 19.3 0.00 0.00 0.00 35
20260504194852 22 225 19.3 19.3 0.00 0.00 0.00 35
20260504194839 22 248 20.9 20.9 0.00 0.00 0.00 35
20260504193839 22 203 19.3 19.3 0.00 0.00 0.00 34